Find Starlink 1134

NORAD ID: 45048 Int'l Des: 2020-006 Owner: SPXS Country: US Constellation: starlink operational
LEOCIRCULAR

Current View

Loading 3D Globe...

About Starlink 1134

Starlink 1134 (NORAD 45048) is a starlink constellation satellite (v1.0) launched Jan 29, 2020 by SPXS of US. It operates in LEO, CIRCULAR orbit with a mass of 260.00 kg.

About Starlink 1134

Description loading...

Upcoming Passes

Passes for default location (London). Set your location on the main map for personalized predictions.

Altitude History

Loading altitude history...

Two-Line Element Set

1 45048U 20006E 26171.45344375 .00084523 00000-0 98089-3 0 9990
2 45048 53.0233 104.0375 0009368 111.6900 248.5110 15.61031370353091
Epoch: Jun 20, 2026 • Age: 11 hours

Current Status

Altitude 385.7 km
Velocity 7.68 km/s
Sub-Earth Point 10.28°N, 124.86°W
Launch Date Jan 29, 2020
Age 6.3 years
Type internet

Technical Details

Classification Payload
Mass 260.00 kg
Dry Mass 248.00 kg
Total Mass 260.00 kg
Length 0.20 m
Diameter 2.80 m
Span 9.00 m
Shape Box + pan
Manufacturer SPXS
Bus Type Starlink
Phase Status In Orbit
Owner/State SPXS/US

Most Searched